Satellite-Ground Cal/Val Site Overpasses Predictions

Prediction of Satellite NPP Overpassing Cal/Val Site: Antarctic Dome C

Ground Cal/Val Site Location: Latitude: -75.10, Longitude: 123.35; Satellite-Ground Site NADIR distance within 100 km.

Table of predicted overpasses for the next 14.0 days since TLE Epoch: 2/2/2018
Interval Starting Time Ending Time Minimum Distance Time Minimum Distance (km)
1 02/03/2018 07:37:36 02/03/2018 07:38:03 02/03/2018 07:37:50 36.00
2 02/04/2018 07:18:50 02/04/2018 07:19:10 02/04/2018 07:19:00 74.09
3 02/06/2018 15:01:03 02/06/2018 15:01:27 02/06/2018 15:01:15 57.67
4 02/07/2018 14:42:12 02/07/2018 14:42:37 02/07/2018 14:42:24 51.53
5 02/08/2018 07:43:53 02/08/2018 07:44:13 02/08/2018 07:44:03 70.93
6 02/09/2018 07:25:00 02/09/2018 07:25:27 02/09/2018 07:25:13 37.09
7 02/11/2018 15:07:23 02/11/2018 15:07:32 02/11/2018 15:07:28 95.13
8 02/12/2018 14:48:23 02/12/2018 14:48:52 02/12/2018 14:48:37 16.26


NCC Satellite Cal/Val Overpasses Prediction Service
